Location: Cussy
(47.0410°N, 4.6412°E)
Time: 05:05:44
(UTC+00:00)

USA 267 - Pass Details

Date: 30 November 2020
Orbit: 1100 x 1107 km, 123.0° (Epoch: 06 January)

Event Time Altitude Azimuth Distance (km) Brightness Sun altitude
Exits shadow 16:31:06 - 77° (ENE) 3,280 5.1 -6.3°
Reaches altitude 10° 16:32:00 10° 74° (ENE) 2,960 4.9 -6.4°
Maximum altitude 16:37:57 39° 9° (N) 1,594 3.9 -7.4°
Drops below altitude 10° 16:43:54 10° 303° (WNW) 2,965 6.0 -8.3°
Sets 16:46:32 0° 296° (WNW) 3,925 6.8 -8.7°
